AST,Max TemperatureF,Mean TemperatureF,Min TemperatureF,Max Dew PointF,MeanDew PointF,Min DewpointF,Max Humidity, Mean Humidity, Min Humidity, Max Sea Level PressureIn, Mean Sea Level PressureIn, Min Sea Level PressureIn, Max VisibilityMiles, Mean VisibilityMiles, Min VisibilityMiles, Max Wind SpeedMPH, Mean Wind SpeedMPH, Max Gust SpeedMPH,PrecipitationIn, CloudCover, Events, WindDirDegrees
2014-2-1,84,79,73,73,72,70,93,79,65,30.06,30.02,29.98,10,10,8,23,9,32,0.19,4,Rain,102
2014-2-2,83,78,72,75,73,72,100,85,69,30.06,30.01,29.96,10,10,7,22,10,26,0.32,3,Rain,93
2014-2-3,84,79,73,75,72,68,100,85,69,30.05,30.00,29.97,10,10,10,22,8,29,0.08,3,Rain,103
2014-2-4,84,80,75,73,71,68,87,74,61,30.09,30.03,29.99,10,10,9,24,11,30,0.04,3,Rain,76
2014-2-5,84,79,73,74,71,69,94,82,69,30.07,30.01,29.96,10,10,2,21,10,29,0.50,4,Rain,85
2014-2-6,85,80,74,76,73,71,94,82,69,30.07,30.02,29.98,10,10,6,22,7,28,0.43,3,Rain,97
2014-2-7,83,78,73,75,72,69,100,85,69,30.11,30.06,30.00,10,10,6,22,9,25,0.36,4,Rain,98
2014-2-8,82,78,73,75,73,70,100,85,69,30.09,30.04,30.00,10,10,9,21,7,25,0.20,4,Rain,103
2014-2-9,82,77,71,74,72,70,100,87,74,30.06,30.00,29.95,10,10,10,21,7,24,0.00,2,,84
2014-2-10,84,78,72,74,72,68,100,84,67,30.05,30.00,29.95,10,10,10,20,8,24,0.00,2,,88
2014-2-11,84,79,73,73,71,69,93,79,65,30.06,30.02,29.97,10,10,10,21,8,25,0.00,2,,85
2014-2-12,85,80,74,72,70,69,87,74,61,30.07,30.00,29.94,10,10,10,22,8,26,0.00,2,,91
2014-2-13,88,82,75,72,70,65,87,67,46,30.04,29.99,29.94,10,10,10,16,5,20,0.00,4,,131
2014-2-14,90,83,75,73,71,66,87,67,47,30.09,30.03,29.96,10,10,10,16,5,20,0.00,1,,108
2014-2-15,88,82,76,72,68,62,87,66,45,30.13,30.08,30.03,10,10,10,21,8,24,0.00,3,,106
2014-2-16,86,80,74,73,69,64,82,67,51,30.10,30.05,29.99,10,10,6,24,8,31,0.12,3,Rain,94
2014-2-17,85,79,73,74,69,64,93,72,51,30.09,30.03,29.99,10,10,7,18,8,24,0.32,4,Rain,83
2014-2-18,84,80,75,74,71,69,94,82,69,30.10,30.03,29.99,10,10,8,21,9,25,0.13,5,Rain,79
2014-2-19,87,81,75,74,70,62,94,71,48,30.08,30.03,29.99,10,10,5,22,11,28,0.26,4,Rain,93
2014-2-20,85,81,76,72,70,67,82,69,55,30.11,30.06,30.02,10,10,10,22,14,28,0.01,3,Rain,77
2014-2-21,84,80,75,76,71,68,87,75,63,30.09,30.05,30.01,10,10,9,25,10,31,0.30,3,Rain,98
2014-2-22,85,80,74,76,71,67,87,71,55,30.09,30.05,30.00,10,10,9,24,9,29,0.13,4,Rain,92
2014-2-23,84,79,73,72,69,66,87,71,55,30.11,30.05,30.00,10,10,9,21,9,25,T,2,Rain,93
2014-2-24,84,79,73,72,70,67,87,73,58,30.08,30.02,29.97,10,10,10,22,7,25,0.05,2,,86
2014-2-25,85,79,73,71,69,65,93,72,51,30.05,29.99,29.92,10,10,10,23,8,26,0.05,3,,97
2014-2-26,85,78,71,71,67,63,87,71,55,30.03,29.96,29.90,10,10,10,21,8,25,0.00,2,,107
2014-2-27,89,81,72,72,68,62,87,65,43,30.04,29.98,29.92,10,10,10,15,4,22,0.00,2,,148
2014-2-28,86,80,74,70,69,65,82,67,51,30.06,30.01,29.96,10,10,10,20,7,25,0.01,2,Rain,103